Location: 22
(39.7117°N, 89.5929°W)
Time: 18:40:40
(UTC-05:00)

Vanguard 3 - Pass Details

Date: 07 February 2023
Orbit: 508 x 3249 km, 33.4° (Epoch: 30 March)

Event Time Altitude Azimuth Distance (km) Brightness Sun altitude
Rises 23:11:04 0° 277° (W) 5,383 11.6 -61.9°
Reaches altitude 10° 23:14:28 10° 270° (W) 4,722 11.1 -62.3°
Enters shadow 23:16:19 16° 264° (W) 4,420 10.9 -62.5°
Maximum altitude 23:27:13 39° 208° (SSW) 3,832 - -63.4°
Drops below altitude 10° 23:44:10 10° 149° (SSE) 6,181 - -64.6°
Sets 23:49:32 0° 143° (SE) 7,160 - -64.8°
